Arbor Vitae, WI

1:10 PM CDT on April 19, 2018 (GMT -0500)
Lakeland-Lee Memorial

Weather History for KARV - October, 2012

Change the Weather History Date:

Thursday, October 4, 2012

  Actual Average Record
Temperature  
Mean Temperature 50 °F -  
Max Temperature 60 °F 59 °F 83 °F (1922)
Min Temperature 41 °F 36 °F 20 °F (1965)
Degree Days  
Heating Degree Days 14    
Moisture  
Dew Point 39 °F    
Average Humidity 63    
Maximum Humidity 82    
Minimum Humidity 44    
Precipitation  
Precipitation 0.00 in - - ()
Sea Level Pressure  
Sea Level Pressure 29.88 in    
Wind  
Wind Speed 8 mph (SSW)    
Max Wind Speed 22 mph    
Max Gust Speed 32 mph    
Visibility 10 miles    
Events      
Averages and records for this station are not official NWS values.
T = Trace of Precipitation, MM = Missing Value Source: NWS Daily Summary

Daily Weather History Graph

Daily Weather History Graph

Search for Another Location

Airport or City:

Astronomy

Oct. 04, 2012 Rise Set
Actual Time 7:01 AM CDT 6:32 PM CDT
Civil Twilight 6:32 AM CDT 7:02 PM CDT
Nautical Twilight 5:57 AM CDT 7:36 PM CDT
Astronomical Twilight 5:22 AM CDT 8:11 PM CDT
Moon 8:53 PM CDT (10/4) 11:33 AM CDT (10/4)
Length of Visible Light 12h 30m
Length of Day
11h 30m
Waning Gibbous, 82% of the Moon is Illuminated
Oct 4
Waning Gibbous
Oct 8
Last Quarter
Oct 15
New
Oct 21
First Quarter
Oct 29
Full

Hourly Weather History & Observations

Time (CDT) Temp. Windchill Dew Point Humidity Pressure Visibility Wind Dir Wind Speed Gust Speed Precip Events Conditions
12:15 AM 51.8 °F - 42.8 °F 71% 29.96 in 10.0 mi Calm Calm - N/A   Clear
12:35 AM 53.6 °F - 44.6 °F 72% 29.96 in 10.0 mi SSE 4.6 mph - N/A   Clear
12:55 AM 51.8 °F - 42.8 °F 71% 29.96 in 10.0 mi SE 3.5 mph - N/A   Clear
1:15 AM 51.8 °F - 42.8 °F 71% 29.96 in 10.0 mi SSE 3.5 mph - N/A   Clear
1:35 AM 51.8 °F - 42.8 °F 71% 29.96 in 10.0 mi Calm Calm - N/A   Clear
1:55 AM 51.8 °F - 42.8 °F 71% 29.96 in 10.0 mi SE 4.6 mph - N/A   Clear
2:15 AM 51.8 °F - 42.8 °F 71% 29.95 in 10.0 mi SSE 3.5 mph - N/A   Clear
2:35 AM 51.8 °F - 44.6 °F 76% 29.94 in 10.0 mi SSE 3.5 mph - N/A   Clear
2:55 AM 51.8 °F - 44.6 °F 76% 29.93 in 10.0 mi SSE 3.5 mph - N/A   Clear
3:15 AM 51.8 °F - 42.8 °F 71% 29.93 in 10.0 mi SE 4.6 mph - N/A   Clear
3:35 AM 51.8 °F - 44.6 °F 76% 29.92 in 10.0 mi SSE 3.5 mph - N/A   Clear
3:55 AM 51.8 °F - 44.6 °F 76% 29.92 in 10.0 mi SSE 3.5 mph - N/A   Clear
4:15 AM 51.8 °F - 44.6 °F 76% 29.91 in 10.0 mi SSE 3.5 mph - N/A   Clear
4:35 AM 51.8 °F - 44.6 °F 76% 29.91 in 10.0 mi SSE 4.6 mph - N/A   Clear
4:55 AM 51.8 °F - 44.6 °F 76% 29.91 in 10.0 mi SSE 3.5 mph - N/A   Clear
5:15 AM 51.8 °F - 44.6 °F 76% 29.90 in 10.0 mi SSE 5.8 mph - N/A   Clear
5:35 AM 51.8 °F - 44.6 °F 76% 29.89 in 10.0 mi SSE 4.6 mph - N/A   Clear
5:55 AM 51.8 °F - 44.6 °F 76% 29.88 in 10.0 mi SE 4.6 mph - N/A   Clear
6:15 AM 51.8 °F - 44.6 °F 76% 29.88 in 10.0 mi SSE 3.5 mph - N/A   Scattered Clouds
6:35 AM 51.8 °F - 44.6 °F 76% 29.87 in 10.0 mi ESE 4.6 mph - N/A   Scattered Clouds
6:55 AM 51.8 °F - 44.6 °F 76% 29.86 in 10.0 mi SE 5.8 mph - N/A   Clear
7:15 AM 51.8 °F - 46.4 °F 82% 29.85 in 10.0 mi SSE 5.8 mph - N/A   Clear
7:35 AM 53.6 °F - 46.4 °F 77% 29.85 in 10.0 mi SSE 4.6 mph - N/A   Clear
7:55 AM 53.6 °F - 46.4 °F 77% 29.84 in 10.0 mi SSE 5.8 mph - N/A   Clear
8:15 AM 55.4 °F - 48.2 °F 77% 29.83 in 10.0 mi SSE 6.9 mph - N/A   Clear
8:35 AM 55.4 °F - 46.4 °F 72% 29.82 in 10.0 mi South 9.2 mph - N/A   Clear
8:55 AM 57.2 °F - 46.4 °F 67% 29.82 in 10.0 mi South 10.4 mph 19.6 mph N/A   Clear
9:15 AM 59.0 °F - 46.4 °F 63% 29.81 in 10.0 mi South 11.5 mph 18.4 mph N/A   Clear
9:35 AM 59.0 °F - 46.4 °F 63% 29.81 in 10.0 mi South 15.0 mph 23.0 mph N/A   Clear
10:15 AM 57.2 °F - 46.4 °F 67% 29.80 in 10.0 mi South 11.5 mph 21.9 mph N/A   Mostly Cloudy
10:35 AM 59.0 °F - 46.4 °F 63% 29.79 in 10.0 mi SSW 12.7 mph 26.5 mph N/A   Overcast
10:55 AM 59.0 °F - 46.4 °F 63% 29.80 in 10.0 mi SSW 17.3 mph 24.2 mph N/A   Scattered Clouds
11:35 AM 60.8 °F - 46.4 °F 59% 29.80 in 10.0 mi SW 15.0 mph 21.9 mph N/A   Scattered Clouds
11:55 AM 59.0 °F - 42.8 °F 55% 29.81 in 10.0 mi SW 17.3 mph 26.5 mph N/A   Scattered Clouds
12:15 PM 55.4 °F - 41.0 °F 58% 29.81 in 10.0 mi SSW 16.1 mph 27.6 mph N/A   Scattered Clouds
12:35 PM 55.4 °F - 41.0 °F 58% 29.82 in 10.0 mi SW 17.3 mph 25.3 mph N/A   Scattered Clouds
12:55 PM 55.4 °F - 41.0 °F 58% 29.82 in 10.0 mi SSW 16.1 mph 23.0 mph N/A   Clear
1:15 PM 55.4 °F - 42.8 °F 63% 29.82 in 10.0 mi SW 15.0 mph 20.7 mph N/A   Clear
1:35 PM 55.4 °F - 41.0 °F 58% 29.82 in 10.0 mi SSW 18.4 mph 29.9 mph N/A   Scattered Clouds
1:55 PM 55.4 °F - 37.4 °F 51% 29.82 in 10.0 mi SW 16.1 mph 26.5 mph N/A   Scattered Clouds
2:15 PM 55.4 °F - 37.4 °F 51% 29.82 in 10.0 mi WSW 16.1 mph 24.2 mph N/A   Scattered Clouds
2:35 PM 55.4 °F - 35.6 °F 47% 29.83 in 10.0 mi WSW 20.7 mph 29.9 mph N/A   Scattered Clouds
2:55 PM 55.4 °F - 35.6 °F 47% 29.83 in 10.0 mi WSW 17.3 mph 23.0 mph N/A   Clear
3:15 PM 55.4 °F - 33.8 °F 44% 29.83 in 10.0 mi SW 11.5 mph 25.3 mph N/A   Scattered Clouds
3:35 PM 55.4 °F - 33.8 °F 44% 29.84 in 10.0 mi WSW 16.1 mph 25.3 mph N/A   Clear
3:55 PM 55.4 °F - 33.8 °F 44% 29.85 in 10.0 mi WSW 17.3 mph 24.2 mph N/A   Clear
4:15 PM 55.4 °F - 33.8 °F 44% 29.85 in 10.0 mi SW 12.7 mph 28.8 mph N/A   Clear
4:35 PM 53.6 °F - 32.0 °F 44% 29.86 in 10.0 mi WSW 13.8 mph 25.3 mph N/A   Clear
4:55 PM 53.6 °F - 32.0 °F 44% 29.87 in 10.0 mi West 18.4 mph - N/A   Clear
5:15 PM 51.8 °F - 32.0 °F 47% 29.88 in 10.0 mi West 19.6 mph 24.2 mph N/A   Clear
5:35 PM 51.8 °F - 32.0 °F 47% 29.89 in 10.0 mi WSW 16.1 mph 24.2 mph N/A   Clear
5:55 PM 48.2 °F - 32.0 °F 54% 29.89 in 10.0 mi WSW 13.8 mph 19.6 mph N/A   Clear
6:15 PM 48.2 °F - 32.0 °F 54% 29.89 in 10.0 mi WSW 13.8 mph 25.3 mph N/A   Clear
6:35 PM 46.4 °F 40.4 °F 32.0 °F 57% 29.90 in 10.0 mi WSW 13.8 mph 24.2 mph N/A   Clear
6:55 PM 46.4 °F 39.5 °F 30.2 °F 53% 29.90 in 10.0 mi WSW 17.3 mph 24.2 mph N/A   Scattered Clouds
7:15 PM 46.4 °F 39.8 °F 30.2 °F 53% 29.91 in 10.0 mi WSW 16.1 mph 25.3 mph N/A   Mostly Cloudy
7:35 PM 44.6 °F 37.8 °F 30.2 °F 57% 29.91 in 10.0 mi West 15.0 mph 27.6 mph N/A   Overcast
8:15 PM 42.8 °F 34.5 °F 28.4 °F 57% 29.91 in 10.0 mi West 18.4 mph 23.0 mph N/A   Scattered Clouds
8:35 PM 42.8 °F 34.3 °F 30.2 °F 61% 29.92 in 10.0 mi West 19.6 mph 32.2 mph N/A   Scattered Clouds
8:55 PM 42.8 °F 36.2 °F 30.2 °F 61% 29.92 in 10.0 mi West 12.7 mph 24.2 mph N/A   Mostly Cloudy
9:15 PM 42.8 °F 34.3 °F 30.2 °F 61% 29.92 in 10.0 mi West 19.6 mph 25.3 mph N/A   Mostly Cloudy
9:35 PM 42.8 °F 34.3 °F 30.2 °F 61% 29.93 in 10.0 mi West 19.6 mph 28.8 mph N/A   Overcast
9:55 PM 42.8 °F 35.4 °F 30.2 °F 61% 29.93 in 10.0 mi West 15.0 mph 27.6 mph N/A   Overcast
10:15 PM 41.0 °F 33.1 °F 30.2 °F 65% 29.93 in 10.0 mi WSW 15.0 mph 26.5 mph N/A   Overcast
10:35 PM 41.0 °F 31.6 °F 28.4 °F 61% 29.93 in 10.0 mi WSW 20.7 mph 31.1 mph N/A   Overcast
10:55 PM 41.0 °F 31.4 °F 28.4 °F 61% 29.94 in 10.0 mi WSW 21.9 mph 29.9 mph N/A   Overcast
11:15 PM 41.0 °F 33.1 °F 28.4 °F 61% 29.94 in 10.0 mi West 15.0 mph 31.1 mph N/A   Overcast
11:35 PM 41.0 °F 34.7 °F 30.2 °F 65% 29.93 in 10.0 mi West 10.4 mph 19.6 mph N/A   Overcast
11:55 PM 41.0 °F 32.5 °F 30.2 °F 65% 29.93 in 10.0 mi WSW 17.3 mph 26.5 mph N/A   Overcast